Temp
46 44 42 44 46 44 43 40 42 43 47 45 45 45 41 40 39 38 38 39 39 39 41 42 42 42 42 43 44 44 46 47 50 50 50 50 47 48 47 47 46 47 47 50
42 39 47 47 45 44 41 39 39 43 45 44 42 43 39 39 38 39 38 38 38 39 40 40 40 40 39 40 41 43 43 44 47 47 46 46 45 45 44 45 44 44 45 45
40 45 47 47 41 41 39 39 38 42 41 41 39 40 37 37 38 38 38 38 38 38 38 38 38 38 39 38 38 41 42 42 44 45 47 46 45 45 44 43 42 41 43 43
42 46 46 42 41 43 37 43 42 40 38 34 38 33 38 35 34 36 36 36 37 37 38 38 37 37 37 37 38 40 41 42 42 44 42 41 41 39 39 40 40 41 41 41
43 42 42 40 43 46 42 42 41 39 35 33 34 33 36 34 32 33 34 35 36 37 37 37 36 36 36 37 36 37 40 40 40 41 42 40 38 38 39 39 39 39 39 39
43 44 45 46 44 44 43 40 37 34 33 26 34 34 34 33 36 35 35 35 36 36 36 36 36 36 36 37 37 37 38 37 38 39 39 39 38 37 38 37 36 37 37 38
39 41 44 46 41 43 41 39 30 27 25 27 30 30 36 39 38 39 37 36 36 36 35 35 35 35 36 36 36 37 37 35 36 37 37 37 36 36 36 35 35 36 36 36
34 32 41 44 43 40 37 39 31 24 22 26 30 27 37 36 36 37 39 38 36 35 35 35 35 35 35 35 35 35 35 35 35 36 35 36 36 36 35 35 35 35 35 35
34 36 40 42 42 43 38 35 38 28 21 23 30 33 38 35 34 33 34 35 35 34 34 35 35 35 35 34 35 35 34 34 35 34 35 35 35 35 34 33 34 33 34 36
41 32 38 39 41 39 39 41 32 29 20 18 27 29 34 34 33 31 31 35 35 35 35 35 35 35 35 35 35 35 35 34 34 34 34 34 34 34 33 34 33 32 32 32
40 37 33 38 36 36 34 33 33 34 28 21 18 28 36 38 35 33 34 36 36 36 36 36 36 35 35 35 34 34 34 33 33 34 33 33 33 33 33 32 31 31 31 31
42 37 27 32 35 36 35 36 35 31 25 24 26 28 36 35 37 37 37 37 37 37 37 36 35 35 34 33 33 33 33 33 34 33 33 33 33 32 31 31 30 30 29 29
42 34 24 27 33 33 33 35 35 33 29 22 23 24 36 34 35 35 35 35 36 36 34 34 34 34 34 33 32 33 33 33 33 32 32 32 32 31 31 30 29 29 28 27
47 35 35 35 33 34 30 32 33 35 23 27 31 30 33 35 36 35 35 35 35 35 36 35 32 33 33 33 33 33 32 32 32 32 31 31 31 30 29 28 27 26 26 25
42 36 31 29 30 30 29 32 31 32 36 31 33 34 35 39 38 37 36 34 34 34 33 33 33 32 32 32 33 32 32 32 31 31 30 30 30 28 27 26 25 24 24 23
36 30 30 25 29 30 29 31 31 33 32 33 32 33 40 40 34 33 35 34 34 34 34 34 34 33 33 34 33 34 32 31 31 30 30 29 27 26 25 23 22 22 21 20
34 28 29 26 23 24 25 27 30 29 29 34 28 36 31 32 34 34 34 34 34 35 35 34 34 34 34 34 35 32 32 30 29 28 27 26 23 21 21 21 19 18 17 17
30 30 30 18 21 19 27 25 28 31 32 29 25 24 31 31 31 33 34 34 34 35 35 35 34 32 32 32 32 32 30 28 26 24 21 21 19 17 18 17 16 15 15 14
28 29 20 20 19 24 23 25 26 27 27 29 30 30 30 29 30 29 33 32 34 34 35 34 33 32 31 31 31 28 26 25 23 22 20 17 16 13 15 11 13 13 12 11
29 31 29 17 20 18 22 23 28 31 20 24 32 26 25 27 21 27 32 32 32 33 32 32 32 31 30 29 26 24 23 22 21 21 20 17 14 9 9 11 9 10 8 11
22 23 25 21 21 22 26 26 30 21 23 21 26 25 25 25 30 32 33 31 32 32 32 31 30 29 29 25 23 23 21 21 20 17 16 14 12 8 8 7 8 6 5 8
21 22 21 21 19 18 27 27 27 30 28 28 27 28 28 30 31 32 32 33 32 31 30 31 26 26 23 22 22 21 20 18 15 14 13 10 6 8 9 1 3 3 2 2
23 26 24 26 25 28 31 29 32 33 29 28 29 30 31 30 30 30 30 29 29 28 28 25 25 23 18 19 20 19 17 15 12 9 5 3 4 7 6 1 4 4 4 2
24 26 24 24 26 27 30 32 32 33 32 32 31 30 28 29 29 29 26 27 27 25 25 21 20 20 21 15 17 15 14 13 5 3 4 5 3 5 6 7 6 3 1 2
26 26 21 22 27 29 30 31 33 31 31 30 29 29 29 28 25 27 25 25 25 24 21 20 21 21 20 13 11 9 10 7 4 3 5 5 4 4 5 5 4 5 6 4
26 24 23 21 31 31 33 36 34 31 31 30 28 26 25 27 27 26 24 25 23 21 17 17 17 15 11 10 8 4 4 4 3 4 4 5 5 4 4 3 2 9 13 16
MSLP
1019.61 1020.20 1020.12 1019.85 1020.13 1020.37 1020.69 1021.04 1020.91 1020.58 1020.34 1020.67 1021.10 1022.02 1023.43 1024.81 1025.74 1026.55 1027.02 1027.32 1027.41 1027.45 1027.43 1027.08 1026.80 1026.58 1026.07 1025.42 1025.09 1025.03 1024.60 1024.31 1023.68 1023.60 1023.89 1024.63 1025.35 1026.07 1026.44 1026.75 1026.92 1026.77 1026.43 1026.21
1020.31 1019.96 1019.35 1019.78 1020.40 1020.69 1021.00 1021.29 1021.28 1020.97 1020.81 1021.28 1021.69 1022.46 1023.68 1025.01 1026.15 1026.89 1027.47 1027.92 1028.07 1028.23 1028.18 1027.96 1027.63 1027.28 1026.88 1026.50 1025.82 1025.37 1025.32 1025.24 1024.94 1024.43 1025.21 1025.77 1026.49 1027.27 1027.82 1027.89 1027.81 1027.72 1027.68 1027.67
1019.35 1019.04 1018.99 1019.72 1020.58 1021.10 1021.21 1021.36 1021.43 1021.39 1021.37 1021.63 1022.20 1022.74 1023.83 1025.15 1025.90 1026.68 1027.32 1027.69 1028.15 1028.42 1028.68 1028.68 1028.42 1028.42 1028.15 1027.59 1027.27 1026.78 1026.40 1025.93 1025.82 1025.87 1025.97 1026.30 1027.04 1027.82 1027.90 1028.48 1028.61 1028.85 1028.53 1028.51
1019.33 1018.75 1019.21 1019.74 1020.20 1020.50 1020.97 1020.78 1021.17 1021.68 1022.21 1022.55 1022.56 1023.16 1023.41 1024.57 1025.74 1026.43 1026.87 1027.31 1027.57 1028.00 1028.54 1028.85 1028.85 1028.79 1028.71 1028.56 1028.34 1027.97 1027.37 1026.85 1026.85 1027.02 1026.87 1027.17 1027.96 1028.85 1029.76 1029.68 1029.76 1029.74 1029.64 1029.47
1018.35 1018.64 1019.02 1019.36 1019.37 1019.93 1020.31 1020.64 1021.47 1021.97 1022.67 1023.01 1023.17 1023.98 1022.97 1024.29 1025.38 1026.30 1027.10 1027.66 1028.01 1028.15 1028.46 1028.93 1029.24 1028.98 1028.99 1028.96 1028.80 1028.68 1028.52 1028.00 1027.82 1027.80 1027.90 1028.10 1028.78 1029.57 1030.18 1030.27 1030.26 1030.41 1030.31 1030.47
1018.31 1018.24 1018.37 1018.42 1019.00 1019.33 1020.33 1021.06 1022.20 1023.02 1023.59 1023.69 1022.76 1023.35 1022.66 1023.25 1023.14 1024.80 1025.96 1026.94 1027.61 1028.13 1028.70 1029.28 1029.49 1029.60 1029.63 1029.74 1029.62 1029.59 1028.75 1029.21 1029.17 1029.06 1029.47 1029.38 1029.72 1030.02 1030.37 1030.79 1030.58 1031.15 1031.15 1031.03
1018.47 1018.24 1017.98 1018.09 1019.05 1019.72 1020.05 1021.00 1022.69 1023.83 1024.25 1023.31 1023.02 1023.57 1021.70 1021.97 1022.73 1023.57 1024.76 1026.21 1027.16 1027.59 1028.24 1028.94 1029.22 1029.44 1029.67 1029.65 1029.56 1029.69 1030.18 1030.13 1030.09 1030.22 1030.19 1030.15 1030.37 1030.55 1030.73 1031.12 1031.27 1031.30 1031.55 1031.67
1018.08 1018.18 1017.51 1017.50 1017.63 1018.31 1019.69 1020.08 1020.84 1022.26 1023.74 1023.49 1023.41 1022.46 1021.05 1021.72 1022.67 1023.85 1024.68 1025.94 1026.87 1027.50 1028.11 1028.61 1028.94 1029.27 1029.68 1029.95 1030.07 1030.27 1030.34 1030.92 1030.78 1030.76 1030.80 1030.92 1031.01 1030.84 1031.15 1031.47 1031.47 1031.82 1031.86 1032.07
1016.99 1017.05 1016.81 1017.02 1017.25 1017.88 1019.36 1019.90 1020.16 1021.79 1023.93 1023.72 1022.08 1021.46 1021.01 1021.93 1022.99 1023.86 1024.73 1025.68 1026.69 1027.37 1027.81 1028.28 1028.69 1029.12 1029.45 1029.71 1030.12 1030.40 1030.55 1030.84 1031.21 1031.19 1031.26 1031.31 1031.21 1031.26 1031.61 1031.97 1032.12 1032.39 1032.60 1032.38
1015.51 1016.73 1017.20 1017.53 1017.47 1018.09 1018.11 1018.78 1020.47 1021.48 1022.97 1022.98 1021.77 1021.43 1020.59 1021.51 1022.57 1023.79 1024.77 1025.16 1026.10 1026.88 1027.51 1027.89 1028.33 1028.81 1029.14 1029.30 1029.69 1030.49 1030.51 1030.74 1030.93 1031.28 1031.39 1031.48 1031.54 1031.76 1031.85 1031.94 1032.09 1032.35 1032.49 1032.48
1015.12 1015.94 1017.82 1017.84 1017.51 1017.38 1018.56 1018.80 1019.70 1020.43 1021.31 1021.59 1021.79 1020.46 1019.61 1020.30 1021.38 1022.52 1023.41 1024.28 1025.23 1026.00 1026.75 1027.39 1027.84 1028.41 1028.87 1029.10 1029.51 1030.05 1030.57 1030.78 1031.10 1031.18 1031.31 1031.45 1031.72 1031.79 1031.91 1032.03 1032.34 1032.52 1032.59 1032.73
1014.38 1015.31 1017.25 1017.38 1017.26 1017.27 1017.20 1017.55 1018.05 1019.07 1020.77 1021.09 1020.87 1019.52 1019.18 1019.80 1020.71 1021.76 1022.69 1023.47 1024.42 1025.21 1025.89 1026.38 1027.13 1027.86 1028.49 1028.84 1029.31 1029.83 1030.24 1030.51 1030.80 1031.12 1031.37 1031.34 1031.42 1031.65 1031.76 1032.06 1032.32 1032.48 1032.50 1032.67
1013.45 1014.48 1016.81 1017.85 1017.98 1017.77 1017.54 1017.49 1017.66 1018.21 1019.02 1019.86 1020.57 1019.63 1019.68 1019.90 1020.53 1021.43 1022.29 1023.10 1023.86 1024.61 1025.56 1026.15 1026.97 1027.46 1027.86 1028.39 1028.86 1029.39 1029.89 1030.27 1030.53 1030.64 1031.01 1031.34 1031.40 1031.48 1031.86 1031.92 1032.11 1032.42 1032.54 1032.69
1012.23 1013.46 1014.10 1014.61 1015.21 1015.89 1017.27 1017.10 1017.44 1017.75 1018.66 1018.76 1017.88 1018.74 1019.23 1019.61 1020.27 1020.96 1021.70 1022.26 1023.06 1023.93 1024.66 1025.45 1026.48 1026.90 1027.43 1027.96 1028.50 1028.91 1029.30 1029.78 1030.25 1030.44 1030.79 1031.12 1031.43 1031.40 1031.75 1032.16 1032.45 1032.54 1032.63 1032.61
1012.25 1013.46 1014.45 1015.30 1015.70 1015.85 1016.05 1016.40 1016.90 1017.11 1017.05 1017.35 1017.31 1017.73 1018.14 1018.53 1019.23 1019.82 1020.52 1021.70 1022.51 1023.22 1024.10 1024.88 1025.49 1025.89 1026.54 1027.33 1027.93 1028.38 1028.75 1029.25 1029.69 1030.25 1030.57 1030.79 1031.26 1031.48 1031.85 1032.15 1032.37 1032.42 1032.38 1032.49
1012.69 1014.00 1014.72 1016.33 1016.71 1016.84 1016.72 1016.48 1016.52 1016.82 1016.90 1016.98 1017.28 1017.04 1017.05 1017.58 1018.89 1019.86 1020.35 1021.26 1021.95 1022.68 1023.46 1023.93 1024.41 1025.08 1025.68 1026.11 1026.76 1027.54 1028.04 1028.55 1029.18 1029.65 1029.98 1030.36 1030.98 1031.43 1031.76 1032.04 1032.30 1032.40 1032.49 1032.58
1013.39 1014.27 1015.09 1016.59 1017.48 1017.78 1017.58 1015.83 1016.37 1016.43 1016.40 1016.50 1017.18 1016.68 1017.66 1018.37 1018.94 1019.37 1020.23 1020.83 1021.38 1022.01 1022.39 1023.09 1023.68 1024.10 1024.66 1025.19 1025.76 1026.57 1027.18 1027.84 1028.65 1029.10 1029.61 1030.18 1030.80 1031.36 1031.79 1032.29 1032.53 1032.61 1032.68 1032.75
1013.98 1014.52 1015.29 1017.24 1017.97 1017.40 1015.55 1015.38 1015.38 1016.06 1016.26 1016.49 1017.04 1017.33 1017.73 1018.26 1018.76 1019.18 1019.77 1020.40 1021.15 1021.66 1022.07 1022.55 1023.11 1023.63 1024.12 1024.73 1025.32 1025.92 1026.80 1027.52 1028.22 1028.90 1029.70 1030.28 1030.94 1031.55 1032.08 1032.46 1032.68 1032.80 1032.88 1032.92
1014.91 1014.89 1016.16 1016.89 1017.01 1015.84 1015.70 1015.66 1015.59 1015.83 1016.14 1016.40 1017.13 1017.88 1018.58 1019.24 1019.52 1019.81 1019.99 1020.33 1020.57 1021.10 1021.63 1022.04 1022.54 1023.28 1023.70 1024.38 1024.90 1025.68 1026.58 1027.33 1028.25 1028.85 1029.55 1030.32 1030.91 1031.60 1032.17 1032.57 1032.68 1032.84 1032.67 1032.60
1015.48 1015.00 1015.08 1016.66 1016.44 1015.83 1014.96 1014.79 1014.90 1015.40 1016.07 1016.11 1016.47 1017.86 1018.78 1019.40 1020.17 1019.73 1019.67 1020.13 1020.59 1020.87 1021.46 1022.04 1022.42 1023.01 1023.67 1024.21 1024.64 1025.59 1026.41 1027.20 1027.88 1028.50 1029.30 1030.27 1031.04 1031.64 1032.12 1032.36 1032.48 1032.49 1032.36 1032.21
1015.77 1015.64 1015.01 1015.41 1015.54 1015.05 1014.27 1014.59 1014.99 1015.84 1015.85 1015.74 1016.70 1017.73 1018.64 1019.09 1018.48 1018.60 1019.27 1020.02 1020.42 1020.82 1021.27 1021.87 1022.46 1022.97 1023.36 1023.95 1024.64 1025.64 1026.14 1026.83 1027.26 1028.30 1029.23 1030.18 1030.88 1031.45 1031.90 1032.18 1032.17 1032.04 1032.09 1032.10
1014.62 1015.18 1015.33 1015.57 1015.48 1015.11 1014.21 1015.31 1015.02 1014.34 1015.09 1015.64 1016.58 1017.32 1018.03 1017.98 1018.44 1018.59 1019.09 1019.71 1020.36 1020.68 1021.08 1021.58 1022.42 1022.97 1023.18 1024.02 1024.69 1025.37 1026.03 1026.40 1027.38 1028.38 1029.32 1030.18 1030.79 1031.23 1031.53 1031.69 1031.69 1031.67 1031.77 1031.90
1014.31 1013.21 1013.65 1014.28 1014.10 1013.62 1013.44 1013.57 1013.83 1014.02 1014.71 1015.82 1016.24 1016.68 1017.21 1017.73 1018.36 1018.53 1018.98 1019.69 1020.23 1020.46 1020.88 1021.37 1022.15 1022.83 1023.39 1023.92 1024.44 1025.16 1025.55 1026.57 1027.57 1028.60 1029.53 1030.12 1030.60 1030.87 1031.01 1031.19 1031.22 1031.30 1031.34 1031.26
1013.53 1013.06 1013.46 1014.07 1013.62 1013.58 1013.63 1013.80 1014.10 1014.37 1014.43 1015.02 1015.59 1016.32 1017.20 1017.72 1018.18 1018.50 1019.02 1019.79 1020.18 1020.41 1020.99 1021.49 1022.33 1023.01 1023.34 1023.74 1024.38 1024.84 1025.71 1026.70 1027.75 1028.75 1029.44 1029.90 1030.29 1030.39 1030.55 1030.66 1030.73 1030.84 1030.84 1030.69
1012.40 1013.07 1013.54 1013.71 1013.43 1013.38 1013.55 1013.82 1014.00 1014.34 1014.81 1015.37 1015.97 1016.41 1016.82 1017.39 1017.86 1018.27 1019.04 1019.71 1019.84 1020.19 1020.71 1021.35 1021.97 1022.45 1022.77 1023.55 1024.48 1025.08 1025.80 1026.75 1027.93 1028.62 1029.09 1029.46 1029.77 1030.01 1030.15 1030.20 1030.06 1029.98 1029.98 1029.84
1012.02 1012.09 1012.38 1012.27 1012.10 1012.21 1012.57 1012.74 1013.32 1014.22 1014.57 1015.16 1015.89 1016.36 1016.74 1017.09 1017.59 1018.32 1018.93 1019.03 1019.41 1020.12 1020.76 1021.38 1021.78 1022.28 1022.92 1023.75 1024.64 1025.45 1025.96 1026.67 1027.60 1028.41 1028.88 1029.04 1029.32 1029.65 1029.73 1029.76 1029.69 1029.37 1028.77 1028.34
Wind_Speed
1 4 10 12 9 3 6 4 5 2 3 0 5 7 3 3 5 4 4 6 7 7 5 7 8 8 8 11 13 14 13 11 7 6 6 8 9 9 10 10 15 15 13 13
4 8 8 5 5 4 4 4 5 4 2 5 1 7 2 3 2 2 4 5 6 4 8 9 11 11 12 11 10 11 12 12 10 5 5 5 6 9 9 9 13 15 15 15
9 5 8 8 5 6 5 6 5 6 0 0 2 6 4 2 4 5 4 4 4 4 5 7 10 11 10 13 12 11 10 11 10 8 6 7 7 6 8 9 10 12 13 13
6 3 6 4 6 8 6 8 6 5 4 5 1 6 4 4 4 5 6 6 7 6 3 3 5 7 9 9 9 10 11 11 11 10 13 15 11 10 6 8 7 9 12 14
7 8 5 5 7 8 6 6 7 3 4 1 2 1 7 4 7 7 7 6 5 5 5 5 3 5 5 6 7 8 10 13 12 11 11 11 12 8 6 7 10 10 10 12
4 1 7 8 3 5 11 8 7 5 3 2 7 7 5 7 7 8 9 9 9 8 6 4 4 4 5 5 7 8 11 11 11 11 10 12 11 9 9 8 8 7 7 7
1 5 4 5 7 3 2 7 2 1 1 6 1 3 7 4 3 10 17 13 10 8 7 6 5 5 4 5 5 6 7 9 8 9 10 11 11 11 12 8 7 8 7 7
8 6 11 7 7 10 7 8 6 8 5 3 1 7 7 2 1 3 7 11 9 9 7 7 7 6 5 5 5 6 7 7 6 8 9 8 8 7 7 8 7 6 6 6
8 7 1 3 4 5 7 5 3 8 2 2 5 5 3 3 1 2 9 12 12 10 9 9 7 7 6 6 6 7 7 6 5 7 7 7 7 8 8 8 7 6 6 6
8 2 1 3 3 4 4 8 4 3 3 6 3 4 6 6 7 7 10 15 12 10 9 8 8 8 6 6 6 6 6 7 6 6 5 6 7 7 7 6 7 7 6 6
6 4 1 4 7 11 4 4 3 5 4 6 2 6 5 6 10 15 15 15 14 13 12 11 9 7 7 6 7 7 6 6 6 6 5 7 6 6 6 7 6 6 6 6
10 5 5 8 2 2 1 7 8 7 6 3 2 7 2 3 8 12 14 14 11 10 12 10 10 9 9 9 7 7 7 7 7 5 5 6 6 6 6 6 5 4 5 5
12 5 4 5 3 2 6 6 4 5 4 8 7 6 0 0 6 8 9 9 11 10 8 8 8 10 10 8 8 8 8 7 6 6 6 6 5 5 5 5 5 4 4 4
12 5 11 14 6 8 8 8 7 7 5 7 10 6 6 6 8 8 9 9 10 10 11 9 7 10 9 8 9 9 8 7 7 7 6 5 5 4 4 4 3 3 4 5
8 11 5 2 2 3 4 9 13 13 12 10 8 13 11 13 13 12 10 7 9 9 8 9 11 10 8 8 9 8 7 7 6 7 6 5 5 5 4 3 3 3 5 5
1 6 5 5 2 3 3 7 8 9 4 7 3 10 7 7 7 7 9 9 8 7 8 9 9 8 11 13 11 10 8 9 7 7 7 6 6 4 3 3 3 3 4 5
8 7 5 5 3 4 7 12 12 6 6 11 12 10 6 5 8 9 8 9 8 7 8 8 9 11 10 12 10 10 10 6 8 7 6 6 5 4 3 2 1 3 3 4
7 7 2 4 3 7 2 2 3 10 6 4 3 4 7 6 4 5 5 8 8 7 6 7 6 6 7 6 7 6 6 7 6 6 6 6 6 4 3 1 1 2 2 3
4 6 4 6 6 4 4 7 10 11 11 10 9 6 6 5 4 3 5 5 6 7 7 6 5 6 6 8 6 7 6 6 6 7 7 6 5 5 3 2 3 3 2 3
1 3 3 3 6 11 3 2 5 5 7 9 15 8 9 7 3 6 7 6 8 7 5 6 6 5 6 7 7 7 7 7 9 8 8 7 6 5 4 3 3 2 2 4
4 0 8 5 5 6 6 6 5 8 8 4 7 7 8 6 6 6 7 5 5 6 8 5 7 8 9 6 8 8 7 11 6 7 7 7 6 5 3 3 2 1 3 4
8 8 4 4 1 8 7 4 10 5 3 6 6 8 10 7 8 7 8 5 6 8 7 8 7 8 5 6 7 7 9 6 8 8 7 6 5 4 4 4 2 2 2 4
4 6 7 8 6 1 15 2 4 5 8 6 7 7 9 8 7 8 6 7 8 7 7 6 8 6 4 6 7 8 6 9 8 7 6 5 4 4 3 3 3 2 3 3
5 3 3 4 5 4 11 2 3 5 6 6 6 6 7 7 7 7 4 6 7 6 7 5 6 7 8 7 6 4 9 8 8 7 6 5 4 4 4 3 3 3 3 3
3 8 6 1 1 3 4 9 6 6 4 4 4 8 10 8 5 7 5 7 7 7 5 5 8 7 7 7 6 6 8 9 7 5 5 4 4 4 3 4 3 4 5 5
5 8 6 5 9 6 7 12 9 8 9 8 8 5 5 8 9 7 7 7 5 6 4 5 6 5 5 6 8 6 7 8 7 5 5 4 4 3 3 3 4 9 12 14
Wind_Direction
38 123 210 194 197 120 135 169 209 213 244 323 251 256 49 81 77 89 78 73 64 51 10 31 25 14 22 37 38 30 35 23 48 64 80 65 71 62 54 48 43 42 38 36
67 225 217 131 154 147 148 159 237 283 207 173 341 263 93 67 80 110 114 83 63 47 25 19 19 20 23 28 36 46 42 37 39 62 75 75 85 68 60 50 46 41 39 36
171 204 144 139 144 167 203 186 194 212 262 80 345 281 197 100 128 128 119 127 102 80 52 22 24 20 20 30 17 33 47 59 56 63 86 90 79 63 61 47 51 40 47 45
226 223 154 162 192 159 203 200 170 158 124 229 101 271 263 181 173 183 169 162 156 138 116 74 48 39 29 25 17 30 48 60 56 58 72 75 85 87 71 72 65 53 43 46
228 166 169 177 206 165 222 129 148 132 129 87 245 140 257 137 217 200 203 192 190 168 154 132 94 81 60 39 36 31 52 59 60 68 82 92 94 93 85 70 65 52 50 45
230 159 165 193 117 162 147 83 54 56 82 271 215 179 251 195 198 177 181 188 185 173 158 139 112 86 70 42 43 34 70 59 55 70 73 86 94 92 83 66 66 49 45 39
184 213 183 141 96 72 190 116 132 352 252 230 74 163 256 220 191 186 182 185 186 174 162 164 145 127 108 93 88 87 73 73 66 84 87 89 90 91 88 81 72 67 53 41
172 251 169 190 178 175 187 171 165 198 198 223 6 224 248 137 344 269 165 169 174 177 172 172 169 157 150 131 114 109 107 105 95 98 90 94 100 91 89 86 83 73 68 57
175 248 70 67 132 146 183 191 148 105 57 79 211 275 253 149 123 100 152 165 189 184 180 181 173 174 163 156 155 148 136 123 118 116 117 105 99 97 95 84 80 77 60 50
209 124 282 171 111 47 161 152 94 1 187 244 262 265 237 212 192 162 179 188 190 187 184 185 185 182 176 169 155 163 156 150 145 132 120 110 102 95 99 96 81 75 69 51
152 129 207 126 210 171 150 167 77 125 151 173 233 250 215 211 175 186 193 192 190 190 188 193 188 183 181 170 170 170 161 154 158 152 137 128 127 115 101 88 78 66 57 38
186 132 164 208 285 327 196 181 167 159 214 243 161 254 151 230 192 182 193 195 192 189 193 188 184 178 185 185 171 175 178 177 174 158 152 140 134 127 110 97 91 75 61 45
179 197 93 356 335 322 214 194 145 102 77 185 153 249 213 188 156 191 184 187 190 189 189 190 185 194 194 186 178 187 188 191 175 170 167 164 154 133 115 105 91 65 50 49
156 155 201 217 192 145 187 185 177 167 160 170 224 185 215 196 192 188 205 191 181 187 197 194 188 202 197 186 186 195 197 187 183 183 182 172 165 136 122 114 89 64 49 35
143 208 128 61 55 101 186 174 180 199 209 196 201 226 191 198 199 199 197 174 174 191 183 193 205 202 188 188 198 199 198 187 184 191 189 184 156 138 135 118 64 44 39 26
116 164 133 159 27 57 265 228 197 206 215 249 163 246 191 201 108 156 185 163 180 185 198 209 207 189 195 200 199 198 197 199 187 196 195 165 158 151 125 71 31 20 12 5
151 138 139 188 124 123 272 203 189 178 181 179 207 224 156 179 184 188 186 181 195 203 208 202 203 202 201 197 188 195 200 176 192 194 170 157 144 136 114 83 17 352 349 334
145 138 128 129 150 216 227 35 200 200 195 192 83 183 181 182 160 181 179 179 194 205 212 221 214 204 198 184 187 183 172 188 178 166 161 147 141 139 140 142 275 289 273 311
330 135 133 164 208 344 159 203 157 163 238 197 202 168 171 117 76 301 191 191 192 199 222 223 205 197 177 189 182 172 171 168 166 178 171 155 146 149 162 200 230 250 266 319
321 338 169 156 185 206 277 147 140 112 280 209 199 162 146 136 132 235 180 188 214 214 206 209 188 172 178 196 159 158 179 172 195 176 158 148 149 159 182 214 235 223 314 307
128 135 209 181 218 281 202 178 161 129 237 148 158 140 148 180 195 168 155 188 205 202 204 196 184 188 204 159 154 190 168 204 167 137 137 147 153 166 190 205 226 251 301 307
158 158 187 126 168 257 148 69 171 178 51 144 163 170 183 205 166 163 168 191 199 213 199 197 185 213 200 161 164 188 201 147 138 139 143 149 161 189 177 184 248 268 279 280
201 179 172 183 209 343 186 118 203 154 143 183 166 193 193 184 197 172 188 215 223 220 215 188 193 210 204 186 182 193 178 145 141 140 153 167 178 193 185 199 255 279 263 275
251 145 163 129 192 209 207 176 182 195 158 164 189 163 162 196 193 196 188 233 230 222 216 178 172 210 232 188 185 169 147 141 137 154 170 174 189 201 210 220 229 235 260 269
174 136 139 346 1 112 240 238 212 215 166 164 169 178 196 192 200 197 217 230 228 223 198 173 199 217 228 156 159 148 142 140 153 162 170 190 194 207 229 236 232 245 237 224
189 159 167 198 191 164 206 214 198 195 204 201 200 210 208 184 209 195 229 224 210 218 188 195 210 193 170 158 157 158 150 152 152 168 187 198 200 208 229 253 280 278 282 287